Regional Weather Roundup
Issued by NWS

Home | Current Version | Previous Version | Graphics & Text | Print | Product List | Glossary On
Versions: 1 2 3 4 5 6 7 8 9 10 11 12 13 14 15 16 17 18 19 20 21 22 23 24 25 26 27 28 29 30 31 32 33 34 35 36 37 38 39 40 41 42 43 44 45 46 47 48 49 50
257
ASUS43 KMKX 250820
RWRWI

WISCONSIN REGIONAL WEATHER ROUNDUP
NATIONAL WEATHER SERVICE MILWAUKEE/SULLIVAN WI
300 AM CDT THU MAY 25 2017

NOTE: "FAIR" INDICATES FEW OR NO CLOUDS BELOW 12,000 FEET WITH NO
SIGNIFICANT WEATHER AND/OR OBSTRUCTIONS TO VISIBILITY.

WIZ001-002-006>008-014>016-023>028-250900-
NORTHWEST WISCONSIN

CITY           SKY/WX    TMP DP  RH WIND       PRES   REMARKS
SUPERIOR ARPT  NOT AVBL
ASHLAND        FOG       34  33  96 CALM      29.75F VSB 1/2
HAYWARD        CLOUDY    41  38  89 NE5       29.73S
SIREN          CLEAR     48  45  90 CALM      29.72S
CUMBERLAND     MOCLDY    48  45  87 E3        29.71S
RICE LAKE      CLOUDY    51  47  84 CALM      29.73S
CHETEK         CLOUDY    52  48  86 CALM      29.71F
LADYSMITH      CLOUDY    51  48  87 CALM      29.74R
EAU CLAIRE     CLOUDY    53  50  89 CALM      29.70S
MENOMONIE      CLOUDY    51  49  93 CALM      29.70F
NEW RICHMOND   CLEAR     45  44  97 CALM      29.71S
OSCEOLA        MOCLDY    47  47 100 CALM      29.74S
$$

WIZ003>005-009-010-017-018-250900-
NORTH CENTRAL WISCONSIN

CITY           SKY/WX    TMP DP  RH WIND       PRES   REMARKS
MANITOWISH WTR CLOUDY    46  46 100 E5        29.73F
ARBOR VITAE    CLOUDY    49  48  94 CALM      29.73S
WOODRUFF       CLOUDY    49  48  94 CALM      29.73S
RHINELANDER    CLOUDY    48  46  93 CALM      29.73S
EAGLE RIVER    CLOUDY    46  46  97 N3        29.73S
LAND O LAKES   CLOUDY    45  45 100 CALM      29.75F
PHILLIPS       CLOUDY    49  48  96 CALM      29.73R
TOMAHAWK         N/A     42  41  97 CALM      29.73S FOG
MEDFORD        CLEAR     46  45  97 NE3       29.71S
MERRILL        CLOUDY    48  48 100 CALM      29.72R
$$

WIZ029-030-035-036-043>047-250900-
CENTRAL WISCONSIN

CITY           SKY/WX    TMP DP  RH WIND       PRES   REMARKS
WAUSAU         PTCLDY    49  47  93 NW5       29.69S
MOSINEE        CLEAR     48  48 100 N7        29.71R
MARSHFIELD     CLEAR     46  44  93 N6        29.69S
STEVENS POINT  CLEAR     45  45 100 N5        29.69S
WAUPACA        CLEAR     50  48  94 NW5       29.68S
WAUTOMA        CLOUDY    53  49  86 N7        29.67F
WISC RAPIDS    MOCLDY    51  48  89 NE7       29.70S
CAMP DOUGLAS   CLOUDY    51  51  99 NW3       29.69S
$$

WIZ011>013-019>022-031-037>040-048>050-250900-
NORTHEAST WISCONSIN

CITY           SKY/WX    TMP DP  RH WIND       PRES   REMARKS
ANTIGO         CLOUDY    47  47  98 N5        29.71R
SHAWANO        CLOUDY    53  49  87 NE8       29.68S
OCONTO         MOCLDY    49  47  92 N6        29.66S
STURGEON BAY   CLOUDY    50  48  93 N6        29.66F
GREEN BAY      CLEAR     49  49 100 N7        29.65F
MANITOWOC      CLOUDY    54  49  83 NE12G18   29.63F
APPLETON       MOCLDY    50  48  93 N8        29.64S
CLINTONVILLE   CLEAR     50  46  87 N5        29.67S
OSHKOSH        CLOUDY    53  49  86 N10       29.64F
$$

WIZ032>034-041-042-053>061-250900-
SOUTHWEST WISCONSIN

CITY           SKY/WX    TMP DP  RH WIND       PRES   REMARKS
LA CROSSE      PTCLDY    49  47  93 CALM      29.69S
SPARTA         MOCLDY    47  47 100 CALM      29.70S
VIROQUA        CLOUDY    51  49  91 MISG      29.68S
BOSCOBEL       CLOUDY    55  49  80 N5        29.68S
PRAIRIE DU CHI CLOUDY    49  47  94 CALM      29.68S
PLATTEVILLE    MOCLDY    51  51  99 N8        29.66S
$$

WIZ056-057-062-063-064-067-068-250900-
SOUTH CENTRAL WISCONSIN

CITY           SKY/WX    TMP DP  RH WIND       PRES   REMARKS
REEDSBURG      CLOUDY    53  51  94 N5        29.67S
BARABOO/DELLS  CLOUDY    53  48  84 NE7       29.67S
LONE ROCK      CLOUDY    54  48  80 NW5       29.66F
MINERAL POINT  CLOUDY    54  52  94 N10       29.65S
MADISON        CLOUDY    53  50  89 N13       29.63F
MIDDLETON      CLOUDY    54  51  89 N7        29.65S
WATERTOWN      CLOUDY    52  52 100 N9        29.62S
MONROE         CLOUDY    52  50  93 N9        29.62F
JANESVILLE     CLOUDY    54  52  94 N6        29.61R
$$

WIZ051-052-058>065-066-070>072-250900-
SOUTHEAST WISCONSIN

CITY           SKY/WX    TMP DP  RH WIND       PRES   REMARKS
MILWAUKEE      MOCLDY    54  50  86 N15       29.58F
WAUKESHA       CLOUDY    50  48  93 N6        29.61S
MILWAUKEE/TIMM   N/A     52  46  82 N9        29.60S
RACINE         PTCLDY    51  47  86 N20G28    29.59S
KENOSHA        MOCLDY    54  50  86 N10       29.57S
FOND DU LAC    CLOUDY    53  48  83 NE14      29.64S
SHEBOYGAN      CLEAR     52  50  93 N16       29.61F
WEST BEND      CLOUDY    52  50  93 N10       29.61F
JUNEAU         CLOUDY    52  50  92 N7        29.64S
$$

LSZ147-162-250900-
LAKE SUPERIOR

STATION/POSITION TIME  TEMP    WIND        PRES    WAVE
                       AIR SEA DIR/SP/G            HT/PER
                 (UTC) (F)     (DEG/KT/KT) (MB)    (FT/S)
$$

LMZ867-665-643>646-250900-
LAKE MICHIGAN

STATION/POSITION TIME  TEMP    WIND        PRES    WAVE
                       AIR SEA DIR/SP/G            HT/PER
                 (UTC) (F)     (DEG/KT/KT) (MB)    (FT/S)
$$

TC  - TEMPERATURE IN CELSIUS
VSB - VISIBILITY IN STATUTE MILES
WCI - WIND CHILL INDEX
HX  - HEAT INDEX





USA.gov is the U.S. government's official web portal to all federal, state and local government web resources and services.